FW9615 Weather Reports


time (UTC)temp
F
wind
direction
speed
knots
gust
knots
rain 1hr
in
rain 24hr
in
rain mn
in
humidity
%
barometer
mb
20260507104556 52 0 0.0 0.0 0.00 0.35 0.15 94 1012.6
20260507103056 52 0 0.0 0.0 0.00 0.35 0.15 94 1012.3
20260507101554 52 0 0.0 0.0 0.00 0.35 0.15 94 1012.1
20260507100056 52 0 0.0 0.0 0.00 0.35 0.15 94 1012.0
20260507094610 52 0 0.0 0.0 0.00 0.35 0.15 94 1012.2
20260507093059 52 0 0.0 0.0 0.00 0.35 0.15 94 1012.2
20260507091640 52 0 0.0 0.0 0.00 0.35 0.15 94 1012.3
20260507090107 52 0 0.0 0.0 0.00 0.35 0.15 94 1012.2
20260507084559 52 0 0.0 0.0 0.00 0.35 0.15 94 1012.0
20260507083056 52 0 0.0 0.0 0.01 0.35 0.15 93 1011.7
20260507081557 52 0 0.0 0.0 0.01 0.35 0.15 93 1011.4
20260507080056 52 0 0.0 0.9 0.01 0.35 0.15 93 1011.1
20260507074551 52 0 0.0 0.0 0.01 0.35 0.15 93 1011.1
20260507073050 52 0 0.0 0.9 0.00 0.34 0.14 92 1011.2
20260507071555 53 0 0.0 2.6 0.00 0.34 0.14 92 1011.3
20260507070100 54 207 0.0 1.7 0.00 0.34 0.14 92 1011.4
20260507064552 55 0 0.0 0.0 0.01 0.34 0.14 93 1011.5
20260507063055 55 0 0.0 0.0 0.01 0.34 0.14 93 1011.0
20260507061554 55 0 0.0 0.0 0.01 0.34 0.14 93 1011.3
20260507060103 55 0 0.0 0.0 0.01 0.34 0.14 93 1011.3
20260507054558 55 0 0.0 0.0 0.08 0.33 0.13 92 1011.6
20260507053055 56 0 0.0 0.0 0.13 0.33 0.13 92 1011.8
20260507051555 56 0 0.0 0.0 0.13 0.33 0.13 91 1011.4
20260507050053 56 0 0.0 0.9 0.13 0.33 0.13 90 1011.5
20260507044555 57 280 0.0 0.9 0.05 0.25 0.05 89 1011.9
20260507043059 58 278 0.0 0.9 0.00 0.20 0.00 86 1011.5
20260507041601 59 0 0.0 3.5 0.00 0.20 0.00 84 1011.5
20260507040051 60 290 0.0 3.5 0.00 0.20 0.00 80 1011.2
20260507034559 61 0 0.0 1.7 0.00 0.20 0.20 82 1010.7
20260507033051 61 0 0.0 1.7 0.00 0.20 0.20 82 1010.7
20260507031553 62 289 0.0 0.9 0.00 0.20 0.20 80 1010.8
20260507030051 62 0 0.0 0.9 0.00 0.20 0.20 81 1010.5
20260507024556 62 0 0.0 1.7 0.00 0.20 0.20 80 1010.4
20260507023054 62 287 0.0 3.5 0.00 0.20 0.20 80 1010.3
20260507021554 63 0 0.0 2.6 0.00 0.20 0.20 81 1010.2
20260507020054 64 288 0.9 2.6 0.00 0.20 0.20 83 1010.3
20260507014551 65 287 0.0 2.6 0.00 0.20 0.20 86 1009.8
20260507013053 65 347 0.0 0.0 0.00 0.20 0.20 85 1010.2
20260507011553 65 0 0.0 0.9 0.00 0.20 0.20 85 1010.1
20260507010111 66 0 0.0 0.9 0.00 0.20 0.20 86 1010.2
20260507004547 66 0 0.0 0.0 0.00 0.20 0.20 86 1009.9
20260507003049 66 0 0.0 0.0 0.00 0.20 0.20 85 1009.6
20260507001559 67 0 0.0 0.0 0.00 0.20 0.20 84 1009.4
20260507000101 67 0 0.0 0.0 0.00 0.20 0.20 83 1009.3
20260506234555 68 0 0.0 0.0 0.00 0.20 0.20 83 1009.1
20260506233059 68 0 0.0 0.9 0.00 0.20 0.20 82 1009.0
20260506231550 68 0 0.0 0.0 0.00 0.20 0.20 81 1008.8
20260506230054 69 0 0.0 0.0 0.00 0.20 0.20 80 1008.8
20260506224553 69 0 0.0 0.0 0.00 0.20 0.20 80 1008.7
20260506223058 68 0 0.0 0.0 0.00 0.20 0.20 80 1008.7
20260506221550 69 0 0.0 0.0 0.00 0.20 0.20 79 1008.8
20260506220052 69 0 0.0 1.7 0.00 0.20 0.20 78 1008.8
20260506214601 70 0 0.0 1.7 0.00 0.20 0.20 77 1008.7
20260506213056 70 0 0.0 1.7 0.00 0.20 0.20 77 1008.5
20260506211554 70 0 0.0 1.7 0.00 0.20 0.20 77 1008.5
20260506210052 70 0 0.0 1.7 0.00 0.20 0.20 76 1008.3
20260506204551 71 0 0.0 0.9 0.00 0.20 0.20 75 1008.1
20260506203053 71 0 0.0 4.3 0.00 0.20 0.20 74 1008.3
20260506201552 73 98 0.0 3.5 0.00 0.20 0.20 71 1008.2
20260506200051 74 317 0.0 3.5 0.00 0.20 0.20 70 1008.2
20260506194550 73 207 0.0 2.6 0.00 0.20 0.20 74 1008.3
20260506193051 71 332 0.0 2.6 0.00 0.20 0.20 75 1008.3
20260506191553 70 190 0.9 2.6 0.00 0.20 0.20 77 1008.5
20260506190052 69 306 0.0 2.6 0.00 0.20 0.20 78 1008.7
20260506184550 68 0 0.0 4.3 0.00 0.20 0.20 83 1008.8
20260506183057 67 270 0.9 3.5 0.00 0.20 0.20 83 1008.9
20260506181549 66 0 0.0 2.6 0.00 0.20 0.20 83 1009.0
20260506180058 66 169 0.0 1.7 0.00 0.20 0.20 85 1009.3
20260506174600 65 0 0.0 4.3 0.00 0.20 0.20 86 1009.3
20260506173118 64 146 0.0 5.2 0.00 0.20 0.20 87 1009.2
20260506171551 64 271 0.0 2.6 0.00 0.20 0.20 89 1009.4
20260506170050 63 157 0.0 2.6 0.00 0.20 0.20 90 1009.4
20260506164551 62 160 0.9 4.3 0.00 0.20 0.20 90 1009.6
20260506163055 62 0 0.0 2.6 0.00 0.20 0.20 92 1009.6
20260506161553 61 233 0.0 5.2 0.01 0.20 0.20 92 1009.7
20260506160049 61 0 0.0 2.6 0.01 0.20 0.20 93 1009.7
20260506154557 61 131 0.9 4.3 0.02 0.20 0.20 92 1009.9
20260506153058 61 0 0.0 2.6 0.03 0.20 0.20 93 1009.7
20260506151558 60 0 0.0 1.7 0.04 0.19 0.19 93 1010.0
20260506144609 60 273 0.0 2.6 0.08 0.18 0.18 92 1010.5
20260506143057 60 171 0.0 3.5 0.09 0.17 0.17 92 1010.4
20260506141555 61 73 0.0 0.9 0.08 0.15 0.15 92 1010.3
20260506140110 61 0 0.0 1.7 0.10 0.13 0.13 91 1010.4
20260506134554 61 0 0.0 0.9 0.09 0.10 0.10 90 1010.6
20260506133133 61 0 0.0 0.9 0.08 0.08 0.08 89 1011.1
20260506131558 62 0 0.0 0.9 0.07 0.07 0.07 88 1010.7
20260506130128 62 0 0.0 0.9 0.03 0.03 0.03 86 1010.7
20260506124551 63 0 0.0 0.0 0.01 0.01 0.01 84 1010.4
20260506123049 63 110 0.0 0.9 0.00 0.00 0.00 82 1010.5
20260506121554 63 0 0.0 1.7 0.00 0.00 0.00 80 1010.9
20260506120055 64 0 0.0 0.9 0.00 0.00 0.00 78 1010.9
20260506114553 64 0 0.0 0.9 0.00 0.00 0.00 77 1010.8
20260506113054 64 0 0.0 2.6 0.00 0.00 0.00 76 1010.4
20260506111554 65 175 0.0 5.2 0.00 0.00 0.00 75 1010.2
20260506110055 64 192 0.0 1.7 0.00 0.00 0.00 76 1010.1